Regional Weather Roundup
Issued by NWS

Home | Current Version | Previous Version | Graphics & Text | Print | Product List | Glossary On
Versions: 1 2 3 4 5 6 7 8 9 10 11 12 13 14 15 16 17 18 19 20 21 22 23 24 25 26 27 28 29 30 31 32 33 34 35 36 37 38 39 40 41 42 43 44 45 46 47 48 49 50
000
ASUS43 KFSD 221602
RWRSD

WEATHER ROUNDUP FOR SOUTH DAKOTA
NATIONAL WEATHER SERVICE SIOUX FALLS SD
1100 AM CDT TUE AUG 22 2017

NOTE: "FAIR" INDICATES FEW OR NO CLOUDS BELOW 12,000 FEET WITH NO
SIGNIFICANT WEATHER AND/OR OBSTRUCTIONS TO VISIBILITY.


SDZ001>005-009-010-012>017-221700-
NORTHWEST AND NORTH CENTRAL SOUTH DAKOTA

CITY           SKY/WX    TMP DP  RH WIND       PRES   REMARKS
BUFFALO          N/A     73  41  31 S8        30.17F
FAITH            N/A     70  42  36 S14       30.23S
$$

SDZ012>016-024>037-041>051-057-063-072>074-221700-
SOUTHWEST AND SOUTH CENTRAL SOUTH DAKOTA

CITY           SKY/WX    TMP DP  RH WIND       PRES   REMARKS
RAPID CTY ARPT SUNNY     71  46  40 SE14      30.24F
PIERRE         SUNNY     67  50  54 SW7       30.22S
CUSTER         SUNNY     64  39  39 SW8G17    30.34S
ELLSWORTH AFB  SUNNY     71  45  39 S15       30.23F
PHILIP         SUNNY     74  43  32 SW6       30.24S
SPEARFISH      FAIR      70  41  35 NE6       30.26S
WINNER         FAIR      71  52  50 CALM      30.25S
$$

SDZ004>011-016>023-039-040-221700-
NORTHEAST SOUTH DAKOTA

CITY           SKY/WX    TMP DP  RH WIND       PRES   REMARKS
ABERDEEN       SUNNY     70  48  45 W12       30.18S
WATERTOWN      SUNNY     67  47  48 NW13      30.16S
BROOKINGS      SUNNY     67  49  52 NW13      30.18S
SISSETON         N/A     70  49  47 NW15      30.12S
$$

SDZ017-020-022-023-036>040-048>070-221700-
SOUTHEAST SOUTH DAKOTA

CITY           SKY/WX    TMP DP  RH WIND       PRES   REMARKS
SIOUX FALLS    MOSUNNY   71  51  49 NW12      30.18S
HURON          SUNNY     67  52  58 NW6       30.20S
CHAMBERLAIN    SUNNY     68  55  63 SW6       30.24S
MITCHELL       SUNNY     70  51  51 W7        30.21S
YANKTON        SUNNY     67  55  65 W8        30.22R
$$

ABBREVIATIONS USED IN REMARKS
   TC - TEMPERATURE IN CELSIUS
  WCI - WIND CHILL INDEX
   HX - HEAT INDEX
  VSB - VISIBILITY





USA.gov is the U.S. government's official web portal to all federal, state and local government web resources and services.